Location: Eaton
(41.3139°N, 82.0207°W)
Time: 13:16:55
(UTC+00:00)

Cosmos 1766 Rocket - Pass Details

Date: 17 June 2021
Orbit: 604 x 633 km, 82.5° (Epoch: 26 July)

Event Time Altitude Azimuth Distance (km) Brightness Sun altitude
Exits shadow 08:35:17 14° 192° (SSW) 1,770 5.4 -12.2°
Maximum altitude 08:39:09 78° 278° (W) 648 3.6 -11.7°
Drops below altitude 10° 08:43:38 10° 5° (N) 2,022 7.0 -11.2°
Sets 08:45:54 0° 7° (N) 2,937 7.9 -10.9°
